Regional Weather Roundup
Issued by NWS

Home | Current Version | Previous Version | Graphics & Text | Print | Product List | Glossary On
Versions: 1 2 3 4 5 6 7 8 9 10 11 12 13 14 15 16 17 18 19 20 21 22 23 24 25 26 27 28 29 30 31 32 33 34 35 36 37 38 39 40 41 42 43 44 45 46 47 48 49 50
000
ASUS43 KMPX 271310
RWRMN
WEATHER ROUNDUP FOR MINNESOTA
NATIONAL WEATHER SERVICE TWIN CITIES/CHANHASSEN MN
800 AM CDT WED MAY 27 2015


NOTE: "FAIR" INDICATES FEW OR NO CLOUDS BELOW 12,000 FEET WITH NO
SIGNIFICANT WEATHER AND/OR OBSTRUCTIONS TO VISIBILITY. N/A MEANS
CURRENT SKY AND/OR WEATHER CONDITIONS ARE NOT AVAILABLE.

MNZ060>063-068>070-271400-
   Twin Cities Metro

CITY           SKY/WX    TMP DP  RH WIND       PRES   REMARKS
TWIN CITIES    PTSUNNY   59  57  93 SW5       29.92R
ST PAUL        MOSUNNY   60  58  92 CALM      29.92R
CRYSTAL        PTSUNNY   61  57  87 SW6       29.90R
BLAINE         PTSUNNY   63  61  94 SW5       29.91R
LAKEVILLE      MOSUNNY   57  55  94 CALM      29.93R
EDEN PRAIRIE   PTSUNNY   58  57  97 SW6       29.91R
SOUTH ST PAUL  MOSUNNY   60  57  89 CALM      29.92R
LAKE ELMO      FAIR      59  59 100 SW6       29.92R
$$
MNZ001>005-007-008-013>017-022>024-027-028-271400-
   Northwest Minnesota

CITY           SKY/WX    TMP DP  RH WIND       PRES   REMARKS
BEMIDJI        MOSUNNY   58  54  86 NW8       29.87R
HALLOCK        MOSUNNY   54  45  71 N14       29.93R
ROSEAU         MOSUNNY   55  46  71 NW10      29.90R
WARROAD        MOSUNNY   54  46  76 W7        29.90R
THIEF RVR FALL MOSUNNY   57  46  67 NW9       29.90R
CROOKSTON      MOSUNNY   57  48  72 N16       29.92R
FOSSTON        SUNNY     57  52  82 CALM      29.89S
DETROIT LAKES  SUNNY     59  52  77 NW6       29.90R
MOORHEAD       SUNNY     61  52  72 NW7       29.91R
PARK RAPIDS    MOSUNNY   61  54  77 NW5       29.87R
MAHNOMEN       FAIR      58  51  79 N3        29.89R
$$
MNZ006-009>011-018-025>026-271400-
   North Central Minnesota

CITY           SKY/WX    TMP DP  RH WIND       PRES   REMARKS
BAUDETTE       MOSUNNY   58  49  72 NW12      29.85R
FLAG ISLAND    SUNNY     54  46  76 NW15      29.86R
INTL FALLS     SUNNY     59  52  77 NW7       29.83R
WASKISH        SUNNY     61  52  72 CALM      29.86R
BIG FORK       SUNNY     57  55  94 CALM      29.85R
LONGVILLE      SUNNY     57  55  94 CALM      29.85S
GRAND RAPIDS   SUNNY     59  54  82 NW6       29.85R
CRANE LAKE     MOSUNNY   57  54  88 CALM      29.82S
ORR            SUNNY     57  52  82 CALM      29.80R
COOK           MOSUNNY   57  54  88 W6        29.83S
WALKER         PTSUNNY   58  53  83 W5        29.86R
$$
MNZ012-019>021-037-271400-
   Northeast Minnesota

CITY           SKY/WX    TMP DP  RH WIND       PRES   REMARKS
DULUTH         PTSUNNY   64  53  67 NW8       29.83R
HIBBING        MOSUNNY   56  52  86 CALM      29.83R
EVELETH        PTSUNNY   54  52  94 SW3       29.84S
DULUTH HARBOR  PTSUNNY   57  54  88 SW10      29.82R
TWO HARBORS    PTSUNNY   64  55  72 NW9G16    29.78F
GRAND MARAIS     N/A     46  42  86 SW8       29.74S
G MARAIS ARPRT MOSUNNY   64  50  59 NW5       29.79S
$$
MNZ029>031-032-039>041-046>048-054>057-064-271400-
   West Central Minnesota

CITY           SKY/WX    TMP DP  RH WIND       PRES   REMARKS
FERGUS FALLS   SUNNY     57  54  88 NW6       29.91R
WHEATON        SUNNY     63  52  67 W7        29.94R
MORRIS         SUNNY     61  54  77 NW10      29.90R
ALEXANDRIA     SUNNY     60  53  77 W7        29.91R
ELBOW LAKE     FAIR      58  53  85 NW9       29.91R
WADENA         SUNNY     57  54  88 W6        29.88R
GLENWOOD       SUNNY     59  54  82 W8        29.91R
APPLETON       SUNNY     61  54  77 W5        29.91R
BENSON         SUNNY     61  54  77 NW3       29.91S
ORTONVILLE     SUNNY     61  52  72 W7        29.92R
MADISON        SUNNY     63  54  72 W6        29.92S
WILLMAR        FAIR      59  54  82 W6        29.93R
$$
MNZ033>034-036-042>043-049>051-058-059-271400-
   Central Minnesota

CITY           SKY/WX    TMP DP  RH WIND       PRES   REMARKS
ST CLOUD       MOSUNNY   58  56  93 S6        29.89R
SAUK CENTRE    FAIR      59  55  86 W5        29.90R
PAYNESVILLE    SUNNY     55  54  97 S6        29.91R
AITKIN         SUNNY     61  54  77 CALM      29.85R
PINE RIVER     SUNNY     57  54  88 CALM      29.90R
BRAINERD       SUNNY     58  55  90 SW6       29.87R
STAPLES        SUNNY     57  55  94 W3        29.88R
LONG PRAIRIE   FAIR      59  54  82 SW3       29.89R
LITTLE FALLS   SUNNY     55  54  94 S3        29.88R
LITCHFIELD     MOSUNNY   59  57  94 W5        29.91S
BUFFALO        PTSUNNY   57  55  92 S5        29.91S
MAPLE LAKE     PTSUNNY   58  57  97 S3        29.91R
$$
MNZ037-044-045-052-053-271400-
   East Central Minnesota

CITY           SKY/WX    TMP DP  RH WIND       PRES   REMARKS
PRINCETON      PTSUNNY   61  57  88 S5        29.89R
MORA           MOSUNNY   57  52  82 SW6       29.89R
CAMBRIDGE      PTSUNNY   63  52  67 SW5       29.87S
RUSH CITY      MOSUNNY   59  56  89 CALM      29.88S
MOOSE LAKE     PTSUNNY   57  57 100 CALM      29.84R
HINCKLEY       FAIR      61  55  82 SW5       29.87R
CLOQUET        PTSUNNY   63  54  72 W8        29.84R
MCGREGOR       MOSUNNY   57  54  88 SW3       29.87R
$$
MNZ071>073-080-081-089-090-097-098-271400-
   Southwest Minnesota

CITY           SKY/WX    TMP DP  RH WIND       PRES   REMARKS
MONTEVIDEO     SUNNY     63  54  72 NW7       29.93R
GRANITE FALLS  SUNNY     60  53  78 W6        29.94R
CANBY          SUNNY     64  52  65 W7        29.94S
MARSHALL       SUNNY     63  48  59 W10       29.93S
REDWOOD FALLS  SUNNY     61  53  75 W8        29.92R
OLIVIA         SUNNY     55  50  82 W5        29.92R
PIPESTONE      SUNNY     57  52  82 W7        29.98R
WINDOM         SUNNY     59  54  82 W9        29.96S
WORTHINGTON    SUNNY     61  52  72 W12       29.98R
JACKSON        SUNNY     61  54  77 W8        29.97S
TRACY          SUNNY     62  53  73 W7        29.95S
SLAYTON        SUNNY     60  52  76 W10       29.98R
$$
MNZ065>067-074>077-082>085-091>093-271400-
   South Central Minnesota

CITY           SKY/WX    TMP DP  RH WIND       PRES   REMARKS
MANKATO        PTSUNNY   59  55  88 SW8       29.94S
NEW ULM        MOSUNNY   57  55  94 SW6       29.93R
ST JAMES       MOSUNNY   61  55  82 SW9       29.96R
FAIRMONT       PTSUNNY   63  52  67 SW10      29.96R
GLENCOE        PTSUNNY   59  58  96 SW5       29.92S
FARIBAULT      PTSUNNY   57  57 100 S5        29.94S
OWATONNA       PTSUNNY   59  55  88 SW5       29.95R
WASECA         PTSUNNY   55  54  94 SW5       29.96S
ALBERT LEA     PTSUNNY   61  55  82 W3        29.96R
$$
MNZ078>079-086>088-094>096-271400-
   Southeast Minnesota

CITY           SKY/WX    TMP DP  RH WIND       PRES   REMARKS
ROCHESTER      PTSUNNY   60  57  89 W9        29.97R
RED WING       PTSUNNY   61  57  88 W5        29.92R
STANTON        PTSUNNY   59  56  91 S5        29.92S
DODGE CENTER   PTSUNNY   61  57  88 W7        29.95R
WINONA         CLOUDY    59  55  88 NW5       29.95R
AUSTIN         PTSUNNY   59  55  88 W3        29.96R
PRESTON        PTSUNNY   57  55  93 NW6       29.96R FOG
$$
ABBREVIATIONS USED IN REMARKS
   TC - TEMPERATURES IN CELSIUS
  WCI - WIND CHILL INDEX
   HX - HEAT INDEX
  VSB - VISIBILITY
$$


USA.gov is the U.S. government's official web portal to all federal, state and local government web resources and services.